sat.trackr.live / text

‹ back to catalog

CONTINUUM-1

NORAD 55045 · 2023-001AN

PAYLOAD ACTIVE UNKNOWN

§ Identity

Operator
Country
AUS
Launch date
2023-01-03
Launch site
AFETR
Launch vehicle
Mass (kg)
RCS (m²)

External: N2YO · Heavens-Above · Gunter

§ Orbital elements

Epoch: 2026-05-25T03:40:33.291840Z

Period
94.14 min
Inclination
97.3352°
Eccentricity
0.0010888
Mean motion
15.29650890 rev/d
Perigee alt
469.4 km
Apogee alt
484.3 km
Semi-major
6,855.0 km
B*
3.7600e-4
RAAN
208.5402°
Arg perigee
137.4789°
Mean anomaly
222.7297°
Rev number
18,873

§ Raw data

CONTINUUM-11 55045U 23001AN  26145.15316310  .00010750  00000+0  37600-3 0  99942 55045  97.3352 208.5402 0010888 137.4789 222.7297 15.29650890188738

JSON: /api/v1/satellites/55045 · /tle

For live sub-satellite position, see the globe view (requires WebGL).

§ Visibility from observer

Set your observer location to see the next 7 days of passes ≥ 10°. The values pass through the URL so the page stays shareable.

No JS? Fill the form by hand. The geolocation button needs JavaScript.